Regional Weather Roundup
Issued by NWS Wakefield, VA

Home | Current Version | Previous Version | Text Only | Print | Product List | Glossary On
Versions: 1 2 3 4 5 6 7 8 9 10 11 12 13 14 15 16 17 18 19 20 21 22 23 24 25 26 27 28 29 30 31 32 33 34 35 36 37 38 39 40 41 42 43 44 45 46 47 48 49 50
000
ASUS41 KAKQ 201810
RWRAKQ

REGIONAL WEATHER ROUNDUP
NATIONAL WEATHER SERVICE WAKEFIELD VA
200 PM EDT WED AUG 20 2014

Note: "fair" indicates few or no clouds below 12,000 feet with no
significant weather and/or obstructions to visibility. * = Denotes
station may not report precipitation (e.g., rain,snow,etc.),
thunder or fog.

VAZ042-051-052>054-056-201900-
NORTHERN VIRGINIA

CITY           SKY/WX    TMP DP  RH WIND       PRES   REMARKS
WASH NATIONAL  MOSUNNY   87  63  44 S13       29.95F
DULLES         PTSUNNY   83  65  54 S13G22    29.95F
FORT BELVOIR   SUNNY     85  63  47 SE8       29.96F
QUANTICO       MOSUNNY   83  66  56 SW9       29.97F
FREDERICKSBRG* MOSUNNY   87  66  49 SE6       29.96S
STAFFORD*      SUNNY     83  65  55 S6        30.00F
WARRENTON      SUNNY     86  74  68 S7        29.95F
CULPEPER*      MOSUNNY  N/A N/A N/A S9        29.95F
MANASSAS*      SUNNY     84  66  54 S15       29.95F
LEESBURG*      PTSUNNY   88  70  55 S14       29.95F
WINCHESTER     TSTM      72  70  94 SW14G21   29.97R VSB 1
$$

VAZ048-049-060>072-079>083-201900-
CENTRAL AND SOUTH CENTRAL VIRGINIA...AND NORTH CENTRAL NORTH CAROLINA

CITY           SKY/WX    TMP DP  RH WIND       PRES   REMARKS
RICHMOND       MOSUNNY   86  66  51 SE7       29.97F
CHESTERFIELD*  MOCLDY    84  63  48 E3        29.99F
HANOVER        SUNNY     86  63  45 VRB3      29.98F
TAPPAHANNOCK*  SUNNY     84  57  39 E9        29.98F
CHARLOTTSVILLE PTSUNNY   83  70  64 S13       29.96F
ORANGE*        PTSUNNY   84  70  61 SE7       29.97F
LOUISA*        MOSUNNY   84  70  61 S8        29.96F
FARMVILLE*     PTSUNNY   84  70  61 S3        29.96R
SOUTH HILL*    PTSUNNY   84  72  65 NE3       30.03F
ROANOKE RAPIDS CLEAR     82  72  69 S5        29.98F
RALEIGH        MOSUNNY   86  70  58 SE5       29.98F
$$

VAZ088>098-201900-
SOUTHEAST VIRGINIA

CITY           SKY/WX    TMP DP  RH WIND       PRES   REMARKS
NORFOLK        SUNNY     80  67  64 NE9       29.98F
VIRGINIA BEACH MOSUNNY   82  69  64 E9        29.98S
NORFOLK NAVAL  MOSUNNY   83  67  58 NE10      30.00S
WEST POINT*    SUNNY     86  62  43 E6        29.99F
NEWPORT NEWS   MOSUNNY   86  66  51 MISG      29.98F
LANGLEY AFB    SUNNY     81  67  63 E7        29.97F
FORT EUSTIS    MOSUNNY   84  60  45 VRB3      29.97F
WILLIAMSBURG*  SUNNY     90  68  48 S7        29.99S
FRANKLIN*      PTSUNNY   86  70  58 E5        29.97F
WAKEFIELD      MOSUNNY   85  68  56 VRB5      29.97F
$$

VAZ020-022-025-037-045-201900-
WESTERN AND SOUTHWEST VIRGINIA

CITY           SKY/WX    TMP DP  RH WIND       PRES   REMARKS
STAUNTON*      CLOUDY    83  67  59 S10       29.99F
HOT SPRINGS VA PTSUNNY   72  62  70 W9        30.14S
LYNCHBURG      CLOUDY    79  72  79 E3        30.01F
DANVILLE       PTSUNNY   83  73  72 VRB3      29.98F
MARTINSVILLE   PTSUNNY   84  73  67 SE3       30.02F
ROANOKE        PTSUNNY   81  69  67 S5        30.03S
BLACKSBURG     PTSUNNY   81  70  69 SW3       30.07F
DUBLIN*        PTSUNNY   80  68  66 SW9       30.08R
MARION*        MOSUNNY   79  68  69 W14       30.12S
HILLSVILLE*    PTSUNNY   77  64  65 W9        30.11S
RICHLANDS*     CLEAR     80  69  69 W6        30.11R
WISE*          MOSUNNY   79  66  65 W12       30.13R
ABINGDON*      CLOUDY    79  71  75 W6        30.10R
$$

MDZ021>025-VAZ099-100-201900-
SOUTHERN MARYLAND AND THE DELMARVA PENINSULA

CITY           SKY/WX    TMP DP  RH WIND       PRES   REMARKS
PATUXENT RIVER MOSUNNY   81  55  40 SE8       29.98F
BAY BRIDGE APT   N/A     82  57  42 SE7       29.97F
LEONARDTOWN    SUNNY     82  55  39 SE7       29.99F
DOVER          PTSUNNY   80  63  55 SE9       29.98F
GEORGETOWN     SUNNY     82  58  43 E14       29.99F
EASTON         MOSUNNY   86  63  45 S8        30.01F
CAMBRIDGE      SUNNY     84  61  45 SE7       29.97F
SALISBURY      SUNNY     84  60  44 SE8       29.98F
OCEAN CITY     SUNNY     78  68  71 E8        29.99F
WALLOPS ISLAND MOSUNNY   81  64  56 E9        30.00F
ACCOMACK*      SUNNY     79  59  50 E10       29.99F
$$

NCZ012>017-030>032-201900-
EASTERN NORTH CAROLINA

CITY           SKY/WX    TMP DP  RH WIND       PRES   REMARKS
ELIZABETH CITY SUNNY     84  70  62 NE8       29.98S
AHOSKIE*       SUNNY     82  70  66 CALM      29.98F
EDENTON*       CLOUDY    81  71  71 CALM      29.98F
CURRITUCK*     MOSUNNY   84  68  59 E8        29.99S
KILL DEVIL HLS SUNNY     81  72  72 NE8       29.97S
MANTEO         CLOUDY    81  72  74 NE9       29.98S
CAPE HATTERAS  MOSUNNY   83  74  74 VRB6      29.97R
GOLDSBORO      MOSUNNY   86  76  71 VRB3      29.96F HX  96
WASHINGTON     MOSUNNY   84  71  65 N5        29.98F
GREENVILLE     MOSUNNY   86  72  62 N5        30.00F
NEW BERN       MOSUNNY   87  72  60 N8        29.99S
WILMINGTON     LGT RAIN  83  75  77 S16       29.97F
$$

VAZ048-201900-
ELSEWHERE

CITY           SKY/WX    TMP DP  RH WIND       PRES   REMARKS
HARRISBURG PA  PTSUNNY   82  65  56 SE8       29.94F
BALTIMORE      PTSUNNY   82  62  50 SE7G20    29.96F
ANNAPOLIS      SUNNY     79  63  57 SE8       29.97F
ANDREWS AFB    SUNNY     83  64  52 S9        29.96F
WILMINGTON DE  MOSUNNY   81  61  50 S9        29.98F
PHILADELPHIA   MOSUNNY   83  61  47 SW8       29.97F
WILDWOOD NJ*   SUNNY     79  61  53 NE7       30.00F
ATLANTIC CITY  SUNNY     80  62  54 E8        29.99F
HENDERSON NC   MOSUNNY   84  71  63 S8        29.98F
GREENSBORO     PTSUNNY   84  71  65 W6        29.99F
ROCKY MOUNT    MOSUNNY   86  71  60 VRB3      29.98F
FAYETTEVILLE   MOSUNNY   90  72  55 NE6       29.96F HX  97
CHARLOTTE      MOSUNNY   88  68  51 SW8       30.01F
$$

VAZ100-201900-
MARINE

STATION/POSITION TIME  TEMP    WIND        PRES    WAVE   SWELL
                       AIR SEA DIR/SP/G            HT/PER HT/PER
                 (UTC) (F)     (DEG/KT/KT) (MB)    (FT/S) (FT/S)
44066 TX TWR #4  1800   72 73   30/ 10/ 12 1015.6R   3/ 6   2/ 6
CAPE MAY NJ      1800   76 80  120/  9/ 11 1015.1S
LEWES DE         1800   76 76  120/  6/  9 1015.4F
15NM E FENWICK I 1800   74 75              1015.5F   3/ 7
OCEAN-CITY-INLET 1800   76 76  100/  6/  8 1015.4F
WACHAPREAGUE VA  1800   77 78   60/  7/ 11 1015.6F
THOMAS POINT MD  1800   77 78  200/  4/  5 1015.6F
GOOSES REEF MD   1800   78     180/  4/  6 1015.6F
COVE POINT MD    1800   77     190/ 11/ 12 1015.0F
SOLOMONS ISLAND  1800      81                N/A
BISHOPS HEAD MD  1800   78 78  160/  2/  3 1015.0S
PINEY POINT MD   1800          150/  9/ 10   N/A
POTOMAC MD       1800   77     160/  4/  6 1014.9F
CAMBRIDGE MD     1800   82 78  100/  6/  9 1014.7F
LEWISETTA VA     1800   77 80  110/ 10/ 12 1015.0F
RAPPAHANNOCK LGT 1800          110/  4/  5 1015.8F
STINGRAY PT      1800   77      90/  2/  4 1016.2S
YORK RVR RNG VA  1800   77     120/  3/  3 1015.0F
JAMESTOWN VA     1800   79     190/  6/  8   N/A
DOMINION TERM VA 1800   78     110/  8/ 11 1015.5R
KIPTOPEKE VA     1800      83  110/  8/ 10   N/A
CHES BAY BRIDGE  1800   76 79   60/  6/  8 1015.0F
CAPE HENRY VA    1800   77      50/  7/  8 1014.3F
CHESAPEAKE LGHT  1700   76      30/  8/  8 1016.2R
WILLOUBY STN VA  1800   77      80/  7/  8 1014.3S
S CRANEY ISL VA  1800           10/  8/ 10 1015.1R
CAPE HENRY BUOY  1800      78                N/A     3/ 5
1ST LANDING BUOY 1800   77      80/  6/ 10 1015.2F
CAPE CHARLES BUO 1800      78                N/A     3/ 6   2/ 6
OFFSHORE WE BUOY 1700      77                N/A     3/ 5   3/ 5
64NM E OF VA BCH 1800   77 78   40/ 10/ 12 1014.6R   3/ 5   3/ 5
DUCK PIER NC     1800   77 79  360/  8/  9 1014.6F
44056 DUCK FRF   1800                        N/A     3/ 6
OREGON INLET NC  1800   80 81   30/  8/ 12 1015.1R
HATTERAS NC      1800   81 82   20/  8/ 10 1015.3S
DIAMOND SHLS NC  1800   78     310/  8/ 10 1014.4    2/ 7   2/ 7
CAPE LOOKOUT NC  1700   81      90/  5/  6 1015.1S
$$



USA.gov is the U.S. government's official web portal to all federal, state and local government web resources and services.